Regional Weather Roundup
Issued by NWS Upton, NY

Current Version | Previous Version | Text Only | Print | Product List | Glossary Off
Versions: 1 2 3 4 5 6 7 8 9 10 11 12 13 14 15 16 17 18 19 20 21 22 23 24 25 26 27 28 29 30 31 32 33 34 35 36 37 38 39 40 41 42 43 44 45 46 47 48 49 50
570 ASUS41 KOKX 240409 RWROKX REGIONAL WEATHER ROUNDUP NATIONAL WEATHER SERVICE NEW YORK NY 1200 AM EDT SUN SEP 24 2017 NOTE: "FAIR" INDICATES FEW OR NO CLOUDS BELOW 12,000 FEET WITH NO SIGNIFICANT WEATHER AND/OR OBSTRUCTIONS TO VISIBILITY. NYZ071-072-176-178-NJZ106-104-240500- NEW YORK CITY METRO AREA CITY SKY/WX TMP DP RH WIND PRES REMARKS Central Park CLEAR 75 55 49 CALM 30.07S Bronx Bot Gard N/A 73 55 53 N3 30.06S LaGuardia APRT CLEAR 76 57 51 CALM 30.03S Kennedy INTL CLEAR 70 56 61 E7 30.04S Breezy Point N/A 77 N/A N/A N5 N/A Newark/Liberty CLEAR 76 56 49 NE3 30.04S Teterboro CLEAR 74 57 55 N5 30.04S $$ NYZ177-179-078>081-240500- LONG ISLAND NEW YORK CITY SKY/WX TMP DP RH WIND PRES REMARKS Jones Beach N/A 70 N/A N/A E6 N/A Matinecock PT N/A 72 N/A N/A CALM N/A Farmingdale CLEAR 67 64 90 CALM 30.05S MacArthur/ISP CLEAR 66 64 93 CALM 30.04S Shirley CLEAR 66 64 93 CALM 30.04F Mt Sinai Harb N/A N/A N/A N/A S5 N/A Westhampton FOG 57 55 93 CALM 30.06S VSB 1 East Hampton FAIR 57 56 97 CALM 30.04S Montauk N/A 62 60 93 CALM 30.05S $$ NYZ052-065-067-240500- HUDSON VALLEY CITY SKY/WX TMP DP RH WIND PRES REMARKS White Plains CLEAR 69 56 62 W5 30.06R Larchmont Harb N/A 72 N/A N/A NE1 N/A Croton On Huds N/A 66 N/A N/A NE3 N/A Newburgh CLEAR 64 61 88 CALM 30.09S Montgomery CLEAR 61 60 97 CALM 30.08R Poughkeepsie CLEAR 61 58 90 CALM 30.06S Albany PTCLDY 66 60 81 CALM 30.08S $$ NJZ001-105-106-008-010-013-015-019>022-104-240500- NEW JERSEY CITY SKY/WX TMP DP RH WIND PRES REMARKS Newark/Liberty CLEAR 76 56 49 NE3 30.04S Teterboro CLEAR 74 57 55 N5 30.04S Caldwell CLEAR 66 62 87 CALM 30.07S Somerville NOT AVBL Linden FAIR 73 58 60 CALM 30.04S Perth Amboy N/A 72 N/A N/A NW3 N/A Sussex CLEAR 62 61 96 CALM 30.08F Andover N/A 62 61 96 CALM 30.09S Trenton CLEAR 68 62 81 NW3 30.05S Millville CLEAR 65 64 97 CALM 30.04F Atlantic City CLEAR 64 62 93 CALM 30.04F Wrightstown CLEAR 68 64 89 CALM 30.02F Toms River CLEAR 62 59 90 CALM 30.05F Belmar CLEAR 67 63 87 CALM 30.05 $$ PAZ047>061-062-071-240500- EASTERN PENNSYLVANIA CITY SKY/WX TMP DP RH WIND PRES REMARKS Philadelphia CLEAR 75 58 55 NW5 30.05S Allentown CLEAR 66 61 84 CALM 30.08S Scranton CLEAR 67 61 81 E7 30.12S $$ CTZ002-004>006-009-010-012-RIZ004-006-007-MAZ004-011-015-240500- SOUTHERN NEW ENGLAND IN CT CITY SKY/WX TMP DP RH WIND PRES REMARKS Bradley INTL PTCLDY 63 59 87 NW3 30.05S Hartford CLEAR 63 61 93 CALM 30.04S Danbury CLEAR 61 58 90 CALM 30.08S Wtrbury/Oxford CLEAR 63 57 81 N3 30.08S Norwalk Harbor N/A 70 N/A N/A NE6 N/A Bridgeport CLEAR 69 59 70 N5 30.04S Meriden CLEAR 60 58 92 CALM 30.05R New Haven CLEAR 64 58 80 CALM 30.05R Chester FAIR 64 64 100 MISG 30.05F Groton CLEAR 63 61 93 CALM 30.03S Wilimantic CLEAR 63 62 97 CALM 30.05S IN RI CITY SKY/WX TMP DP RH WIND PRES REMARKS Providence CLEAR 64 64 100 NW3 30.04S Block Island FOG 62 62 100 NE5 30.04S VSB 1/4 Westerly CLEAR 64 62 93 CALM 30.04S IN MA CITY SKY/WX TMP DP RH WIND PRES REMARKS Boston PTCLDY 62 61 96 CALM 30.03F Worcester CLEAR 68 53 58 NW5 30.08S Westfield CLEAR 62 60 93 CALM 30.05F Provincetown FOG 60 60 100 NW5 30.04S VSB 1/4 Nantucket FOG 62 62 100 N12 30.00F VSB 1/2 $$ ANZ330-335-338-340-345-350-353-355-240500- COASTAL MARINE OBSERVATIONS STATION/POSITION TIME SKY/WX TEMP WIND PRES VSBY WAVE AIR SEA DIR/SP/G HT/PER (UTC) (F) (DEG/KT/KT) (MB) (MI) (FT/S) NY HARB ENTRANCE 0250 75 71 300/ 2/ 4 1016.4 4/12 20 S FIRE ISLAND 0250 68 68 160/ 4/ 4 1017.2 4/14 GREAT SOUTH BAY 0315 69 70 CALM / 4 N/A 23 SSW MONTAUK P 0250 64 64 1017.2 4/14 15 E BARNEGAT LI 0330 70 N/A 5/13 HUDSON CANYON 0250 67 68 50/ 8/ 10 1016.4 5/14 KINGS POINT 0336 71 72 CALM / 1 1018.1 EXECUTION ROCKS 0345 73 10/ 2/ 4 N/A WESTERN LI SOUND NOT AVBL CENTRAL LI SOUND NOT AVBL EASTERN LI SOUND NOT AVBL ROBBINS REEF 0336 79 350/ 6/ 7 1017.8 $$ >>>>>>>>>>>>>>>>>>>>>>>>>>>> KEY <<<<<<<<<<<<<<<<<<<<<<<<<<< > < > SKY/WX - Sky Condition/Present Weather < > TMP - Temperature in Fahrenheit < > DP - Dew Point in Fahrenheit < > RH - Relative Humidity in Percent < > WIND - Direction (from) and Speed in MPH < > PRES - Mean Sea Level Pressure (inches of Hg) < > WCI - Wind Chill Index < > VSB - VISIBILITY IN MILES < > HX - HEAT INDEX < > TC - TEMPERATURE IN CELSIUS < > VRB - VARIABLE WIND DIRECTION < > < >>>>>>>>>>>>>>>>>>>>>>>>>>>> KEY <<<<<<<<<<<<<<<<<<<<<<<<<<<

USA.gov is the U.S. government's official web portal to all federal, state and local government web resources and services.